| time (UTC) | temp F | wind direction | speed knots | gust knots | rain 1hr in | rain 24hr in | rain mn in | humidity % | barometer mb |
| 20260902093025 | 80 | 98 | 0.0 | 2.6 | 0.00 | 0.00 | 0.00 | 46 | 1017.9 |
| 20260902091524 | 79 | 94 | 0.0 | 1.7 | 0.00 | 0.00 | 0.00 | 48 | 1017.9 |
| 20260902090019 | 77 | 113 | 0.9 | 2.6 | 0.00 | 0.00 | 0.00 | 47 | 1017.8 |
| 20260902084517 | 76 | 258 | 0.0 | 3.5 | 0.00 | 0.00 | 0.00 | 50 | 1017.7 |
| 20260902083014 | 75 | 102 | 0.0 | 1.7 | 0.00 | 0.00 | 0.00 | 52 | 1017.6 |
| 20260902081512 | 74 | 63 | 0.0 | 3.5 | 0.00 | 0.00 | 0.00 | 51 | 1017.6 |
| 20260902080011 | 73 | 98 | 0.0 | 2.6 | 0.00 | 0.00 | 0.00 | 47 | 1017.6 |
| 20260902074510 | 72 | 98 | 0.0 | 0.9 | 0.00 | 0.00 | 0.00 | 46 | 1017.5 |
| 20260902073008 | 70 | 97 | 0.9 | 2.6 | 0.00 | 0.00 | 0.00 | 46 | 1017.4 |
| 20260902071511 | 69 | 121 | 0.0 | 1.7 | 0.00 | 0.00 | 0.00 | 46 | 1017.3 |
| 20260902070006 | 66 | 87 | 0.0 | 1.7 | 0.00 | 0.00 | 0.00 | 51 | 1017.0 |
| 20260902064503 | 66 | 90 | 0.0 | 0.9 | 0.00 | 0.00 | 0.00 | 50 | 1016.8 |
| 20260902063002 | 66 | 109 | 0.0 | 0.9 | 0.00 | 0.00 | 0.00 | 50 | 1016.7 |
| 20260902061558 | 0 | 0.0 | 0.0 | 0.00 | 0.00 | 0.00 | 1016.5 | ||
| 20260902060053 | 0 | 0.0 | 0.0 | 0.00 | 0.00 | 0.00 | 1016.4 | ||
| 20260902054550 | 0 | 0.0 | 0.0 | 0.00 | 0.00 | 0.00 | 1016.4 | ||
| 20260902053045 | 0 | 0.0 | 0.0 | 0.00 | 0.00 | 0.00 | 1016.3 | ||
| 20260902051545 | 0 | 5 | 0.0 | 0.0 | 0.00 | 0.00 | 0.00 | 1016.1 | |
| 20260902050056 | 62 | 7 | 0.0 | 0.0 | 0.00 | 0.00 | 0.00 | 51 | 1015.8 |
| 20260902044539 | 63 | 7 | 0.0 | 0.0 | 0.00 | 0.00 | 0.00 | 51 | 1015.5 |
| 20260902043044 | 63 | 7 | 0.0 | 0.9 | 0.00 | 0.00 | 0.00 | 52 | 1015.6 |
| 20260902041536 | 62 | 236 | 0.0 | 0.0 | 0.00 | 0.00 | 0.00 | 53 | 1015.6 |
| 20260902040035 | 63 | 228 | 0.0 | 0.0 | 0.00 | 0.00 | 0.00 | 51 | 1015.6 |
| 20260902034529 | 64 | 228 | 0.0 | 0.0 | 0.00 | 0.00 | 0.00 | 50 | 1015.6 |
| 20260902033027 | 66 | 228 | 0.0 | 0.9 | 0.00 | 0.00 | 0.00 | 46 | 1015.7 |
| 20260902031524 | 66 | 162 | 0.0 | 0.9 | 0.00 | 0.00 | 0.00 | 46 | 1015.7 |
| 20260902030020 | 68 | 165 | 0.0 | 1.7 | 0.00 | 0.00 | 0.00 | 44 | 1015.5 |
| 20260902024520 | 68 | 155 | 0.0 | 0.0 | 0.00 | 0.00 | 0.00 | 43 | 1015.4 |
| 20260902023019 | 68 | 49 | 0.0 | 0.0 | 0.00 | 0.00 | 0.00 | 43 | 1015.2 |
| 20260902021518 | 69 | 49 | 0.0 | 0.0 | 0.00 | 0.00 | 0.00 | 42 | 1015.2 |
| 20260902020017 | 69 | 49 | 0.0 | 0.0 | 0.00 | 0.00 | 0.00 | 41 | 1015.3 |
| 20260902014518 | 70 | 49 | 0.0 | 0.0 | 0.00 | 0.00 | 0.00 | 40 | 1015.2 |
| 20260902013016 | 69 | 49 | 0.0 | 0.0 | 0.00 | 0.00 | 0.00 | 41 | 1015.2 |
| 20260902011517 | 69 | 49 | 0.0 | 0.0 | 0.00 | 0.00 | 0.00 | 40 | 1015.2 |
| 20260902010012 | 69 | 49 | 0.0 | 1.7 | 0.00 | 0.00 | 0.00 | 40 | 1015.3 |
| 20260902004513 | 69 | 60 | 0.0 | 0.0 | 0.00 | 0.00 | 0.00 | 40 | 1015.3 |
| 20260902003021 | 69 | 76 | 0.0 | 0.0 | 0.00 | 0.00 | 0.00 | 40 | 1015.4 |
| 20260902001511 | 67 | 76 | 0.0 | 0.9 | 0.00 | 0.00 | 0.00 | 44 | 1015.3 |
| 20260902000008 | 68 | 123 | 0.0 | 0.9 | 0.00 | 0.00 | 0.00 | 43 | 1015.3 |
| 20260901234506 | 71 | 123 | 0.0 | 2.6 | 0.00 | 0.00 | 0.00 | 39 | 1015.4 |
| 20260901233004 | 69 | 224 | 0.0 | 0.0 | 0.00 | 0.00 | 0.00 | 42 | 1015.3 |
| 20260901231504 | 70 | 224 | 0.0 | 0.9 | 0.00 | 0.00 | 0.00 | 43 | 1015.1 |
| 20260901230107 | 70 | 224 | 0.0 | 0.9 | 0.00 | 0.00 | 0.00 | 41 | 1015.1 |
| 20260901230001 | 70 | 224 | 0.0 | 0.9 | 0.00 | 0.00 | 0.00 | 41 | 1015.1 |
| 20260901224658 | 71 | 224 | 0.0 | 0.9 | 0.00 | 0.00 | 0.00 | 40 | 1014.9 |
| 20260901223104 | 72 | 206 | 0.0 | 0.0 | 0.00 | 0.00 | 0.00 | 37 | 1014.7 |
| 20260901221551 | 73 | 194 | 0.0 | 0.0 | 0.00 | 0.00 | 0.00 | 36 | 1014.7 |
| 20260901220106 | 75 | 260 | 0.0 | 0.0 | 0.00 | 0.00 | 0.00 | 35 | 1014.6 |
| 20260901214547 | 76 | 260 | 0.0 | 0.0 | 0.00 | 0.00 | 0.00 | 33 | 1014.5 |
| 20260901213050 | 77 | 260 | 0.0 | 0.0 | 0.00 | 0.00 | 0.00 | 33 | 1014.5 |
| 20260901211546 | 78 | 263 | 0.0 | 0.9 | 0.00 | 0.00 | 0.00 | 32 | 1014.4 |
| 20260901210045 | 78 | 265 | 0.0 | 1.7 | 0.00 | 0.00 | 0.00 | 31 | 1014.3 |
| 20260901204544 | 78 | 290 | 0.0 | 1.7 | 0.00 | 0.00 | 0.00 | 31 | 1014.3 |
| 20260901203046 | 79 | 268 | 0.0 | 2.6 | 0.00 | 0.00 | 0.00 | 31 | 1014.1 |
| 20260901201552 | 80 | 270 | 0.0 | 0.9 | 0.00 | 0.00 | 0.00 | 30 | 1013.8 |
| 20260901200044 | 81 | 278 | 0.0 | 0.9 | 0.00 | 0.00 | 0.00 | 29 | 1013.5 |
| 20260901194542 | 81 | 266 | 0.0 | 0.9 | 0.00 | 0.00 | 0.00 | 28 | 1013.3 |
| 20260901193043 | 82 | 265 | 0.0 | 0.9 | 0.00 | 0.00 | 0.00 | 27 | 1013.0 |
| 20260901191602 | 83 | 262 | 0.0 | 0.9 | 0.00 | 0.00 | 0.00 | 27 | 1012.9 |
| 20260901190042 | 84 | 297 | 0.0 | 1.7 | 0.00 | 0.00 | 0.00 | 26 | 1012.8 |
| 20260901184605 | 85 | 278 | 0.0 | 3.5 | 0.00 | 0.00 | 0.00 | 24 | 1012.6 |
| 20260901183042 | 87 | 281 | 0.9 | 3.5 | 0.00 | 0.00 | 0.00 | 24 | 1012.4 |
| 20260901181551 | 88 | 281 | 1.7 | 4.3 | 0.00 | 0.00 | 0.00 | 25 | 1012.4 |
| 20260901180037 | 87 | 263 | 0.0 | 2.6 | 0.00 | 0.00 | 0.00 | 25 | 1012.3 |
| 20260901174551 | 88 | 281 | 0.9 | 6.1 | 0.00 | 0.00 | 0.00 | 24 | 1012.1 |
| 20260901173036 | 90 | 275 | 0.0 | 7.0 | 0.00 | 0.00 | 0.00 | 23 | 1012.2 |
| 20260901171540 | 91 | 238 | 2.6 | 7.8 | 0.00 | 0.00 | 0.00 | 22 | 1012.1 |
| 20260901170034 | 91 | 280 | 1.7 | 7.8 | 0.00 | 0.00 | 0.00 | 23 | 1012.0 |
| 20260901164539 | 89 | 305 | 2.6 | 7.0 | 0.00 | 0.00 | 0.00 | 23 | 1012.0 |
| 20260901163032 | 90 | 259 | 0.0 | 6.1 | 0.00 | 0.00 | 0.00 | 26 | 1012.1 |
| 20260901161532 | 91 | 284 | 1.7 | 6.1 | 0.00 | 0.00 | 0.00 | 25 | 1012.1 |
| 20260901160042 | 92 | 238 | 0.9 | 7.8 | 0.00 | 0.00 | 0.00 | 26 | 1012.1 |
| 20260901154533 | 92 | 273 | 1.7 | 9.6 | 0.00 | 0.00 | 0.00 | 26 | 1012.2 |
| 20260901153027 | 91 | 225 | 0.9 | 7.8 | 0.00 | 0.00 | 0.00 | 27 | 1012.2 |
| 20260901151528 | 91 | 334 | 1.7 | 7.0 | 0.00 | 0.00 | 0.00 | 26 | 1012.3 |
| 20260901150027 | 91 | 232 | 3.5 | 8.7 | 0.00 | 0.00 | 0.00 | 27 | 1012.5 |
| 20260901144523 | 91 | 264 | 3.5 | 10.4 | 0.00 | 0.00 | 0.00 | 26 | 1012.5 |
| 20260901143138 | 91 | 200 | 2.6 | 6.1 | 0.00 | 0.00 | 0.00 | 29 | 1012.5 |
| 20260901141518 | 90 | 259 | 0.0 | 4.3 | 0.00 | 0.00 | 0.00 | 29 | 1012.7 |
| 20260901140015 | 90 | 247 | 1.7 | 5.2 | 0.00 | 0.00 | 0.00 | 30 | 1012.9 |
| 20260901134519 | 89 | 255 | 1.7 | 7.8 | 0.00 | 0.00 | 0.00 | 32 | 1013.1 |
| 20260901133011 | 89 | 269 | 4.3 | 7.8 | 0.00 | 0.00 | 0.00 | 31 | 1013.2 |
| 20260901131513 | 88 | 224 | 0.9 | 4.3 | 0.00 | 0.00 | 0.00 | 34 | 1013.3 |
| 20260901130008 | 88 | 316 | 1.7 | 11.3 | 0.00 | 0.00 | 0.00 | 34 | 1013.5 |
| 20260901124513 | 87 | 328 | 1.7 | 7.0 | 0.00 | 0.00 | 0.00 | 36 | 1013.4 |
| 20260901123008 | 87 | 227 | 1.7 | 9.6 | 0.00 | 0.00 | 0.00 | 37 | 1013.6 |
| 20260901121601 | 86 | 154 | 0.9 | 4.3 | 0.00 | 0.00 | 0.00 | 39 | 1013.7 |
| 20260901114559 | 85 | 102 | 1.7 | 5.2 | 0.00 | 0.00 | 0.00 | 42 | 1014.0 |
| 20260901113059 | 84 | 122 | 0.9 | 3.5 | 0.00 | 0.00 | 0.00 | 44 | 1014.0 |
| 20260901111604 | 81 | 67 | 1.7 | 5.2 | 0.00 | 0.00 | 0.00 | 49 | 1014.3 |
| 20260901110049 | 82 | 81 | 0.9 | 3.5 | 0.00 | 0.00 | 0.00 | 47 | 1014.4 |
| 20260901104549 | 80 | 115 | 1.7 | 4.3 | 0.00 | 0.00 | 0.00 | 50 | 1014.5 |
| 20260901103044 | 80 | 104 | 1.7 | 7.8 | 0.00 | 0.00 | 0.00 | 52 | 1014.5 |
| 20260901101541 | 79 | 191 | 0.9 | 6.1 | 0.00 | 0.00 | 0.00 | 55 | 1014.7 |
| 20260901100046 | 77 | 82 | 3.5 | 6.1 | 0.00 | 0.00 | 0.00 | 57 | 1014.8 |
| 20260901094538 | 77 | 127 | 0.9 | 5.2 | 0.00 | 0.00 | 0.00 | 57 | 1014.8 |